Simultaneous Nadir Overpasses (SNOs) Predictions

Prediction of SNOs between GOES-15 and METOP-A Satellite Orbit:

Table of predicted SNOs for the next 14.0 days since TLE Epoch: 1/13/2012
Index Date Time (GOES-15) GOES-15 Lat,Lon METOP-A Lat,Lon Distance(km) Time Diff (sec)
1 01/14/2012 06:33:11 0.02,-134.70 -0.15,-135.54 96.40 80
2 01/15/2012 06:09:53 0.03,-134.68 0.94,-130.55 470.37 80
3 01/16/2012 18:31:26 -0.02,-134.59 0.07,-135.11 58.69 80
4 01/19/2012 06:29:50 0.02,-134.59 -0.01,-134.72 14.75 80
5 01/21/2012 18:25:25 -0.02,-134.47 -0.09,-134.29 21.15 80
6 01/24/2012 06:26:29 0.02,-134.45 0.16,-133.89 64.06 80
7 01/25/2012 18:45:21 -0.01,-134.35 0.90,-138.44 466.10 80
8 01/26/2012 18:22:02 -0.01,-134.32 -0.21,-133.45 99.66 80
